Location: Bothwell
(42.3833°S, 147.0000°E)
Time: 20:43:08
(UTC+11:00)

BUGSAT 1 - Pass Details

Date: 26 September 2022
Orbit: 554 x 595 km, 98.1° (Epoch: 25 November)

Event Time Altitude Azimuth Distance (km) Brightness Sun altitude
Rises 04:43:40 0° 38° (NE) 2,828 ? -13.9°
Reaches altitude 10° 04:45:58 10° 47° (NE) 1,939 ? -13.5°
Maximum altitude 04:49:45 33° 111° (ESE) 1,026 ? -12.8°
Drops below altitude 10° 04:53:36 10° 174° (S) 1,972 ? -12.1°
Sets 04:55:56 0° 183° (S) 2,883 ? -11.7°
